Voltar ao catálogo

ONEWEB-0688

AtivoComunicaçõesPO
NORAD 61596·PAYLOAD·🇬🇧 United Kingdom

Lançado Oct 20, 2024 de Vandenberg Space Force Base

Loading…

Próximas Passagens (próximas 24 horas)

TLE

AtualizadoSource: CelesTrak SupGP

Época: Sep 14, 2026, 08:32 UTC

1 61596C 24188C   26257.35574488 -.00002622  00000+0 -67613-2 0  2571
2 61596  87.9200 348.1652 0002961 120.2181 349.7148 13.17652297    17

Acompanhe ONEWEB-0688 em tempo real com AllMySat

Download on the App Store